This demonstration page uses our WeatherBlox Daily Observations layout. Learn more.

Left ArrowRight Arrow

39.08367, -84.50855

Hourly Observations for May 1, 2020

Temp ( °F °C ) Dew Point ( °F °C ) Humidity (%) Winds ( mph kmh ) Pressure ( in mb ) Visibility ( mi km ) Precip ( " mm )
12:11 am 00:11 Cloudy 49 9.4 41 5 74 74 W 8 13 29.85 1011 10 16.0934 0 0
12:28 am 00:28 Cloudy 49 9.4 41 5 74 74 W 8 13 29.85 1011 10 16.0934 0 0
12:53 am 00:53 Cloudy 49 9.4 40 4.4 71 71 W 7 11 29.84 1011 10 16.0934 0 0
1:53 am 01:53 Cloudy with Light Rain 49 9.4 40 4.4 71 71 WNW 7 11 29.85 1011 10 16.0934 0.001 0.001
2:53 am 02:53 Cloudy 49 9.4 40 4.4 71 71 WNW 8 13 29.85 1011 10 16.0934 0.001 0.001
3:53 am 03:53 Cloudy 49 9.4 39 3.9 69 69 NW 8 13 29.87 1011 10 16.0934 0 0
4:53 am 04:53 Cloudy 48 8.9 40 4.4 74 74 NW 9 15 29.89 1012 10 16.0934 0 0
5:53 am 05:53 Cloudy 48 8.9 40 4.4 74 74 NNW 8 13 29.91 1013 10 16.0934 0 0
6:53 am 06:53 Cloudy 48 8.9 40 4.4 74 74 WNW 7 11 29.94 1014 10 16.0934 0 0
7:53 am 07:53 Cloudy 48 8.9 41 5 77 77 WNW 6 9 29.98 1015 10 16.0934 0 0
8:53 am 08:53 Cloudy 48 8.9 41 5 77 77 N 12 19 30.01 1016 10 16.0934 0 0
9:53 am 09:53 Cloudy 49 9.4 42 5.6 77 77 WNW 8 13 30.04 1017 10 16.0934 0 0
10:53 am 10:53 Cloudy 50 10 42 5.6 74 74 W 9 15 30.05 1018 10 16.0934 0 0
11:53 am 11:53 Cloudy 53 11.7 43 6.1 69 69 VRB 5 7 30.07 1018 10 16.0934 0 0
12:53 pm 12:53 Cloudy 55 12.8 43 6.1 64 64 W 6 9 30.08 1019 10 16.0934 0 0
1:53 pm 13:53 Cloudy 59 15 44 6.7 58 58 VRB 6 9 30.05 1018 10 16.0934 0 0
2:53 pm 14:53 Partly Cloudy 64 17.8 46 7.8 52 52 undefined N/A 30.04 1017 10 16.0934 0 0
3:53 pm 15:53 Partly Cloudy 66 18.9 44 6.7 45 45 Calm 30.04 1017 10 16.0934 0 0
4:53 pm 16:53 Mostly Sunny 67 19.4 43 6.1 42 42 WSW 7 11 30.02 1017 10 16.0934 0 0
5:53 pm 17:53 Sunny 69 20.6 41 5 36 36 W 6 9 30.02 1017 10 16.0934 0 0
6:53 pm 18:53 Sunny 69 20.6 39 3.9 33 33 VRB 3 6 30.03 1017 10 16.0934 0 0
7:53 pm 19:53 Sunny 65 18.3 38 3.3 37 37 VRB 6 9 30.05 1018 10 16.0934 0 0
8:53 pm 20:53 Clear 55 12.8 46 7.8 72 72 Calm 30.07 1018 10 16.0934 0 0
9:53 pm 21:53 Clear 54 12.2 46 7.8 75 75 Calm 30.08 1019 10 16.0934 0 0
10:53 pm 22:53 Clear 53 11.7 46 7.8 77 77 Calm 30.09 1019 10 16.0934 0 0
11:53 pm 23:53 Clear 52 11.1 47 8.3 83 83 Calm 30.06 1018 10 16.0934 0 0

Powered by AerisWeather